User: anonymous
Location: Unspecified
(0.0000°N, 0.0000°E)
Time: 12:12:33
(UTC+02:00)
Language:

ASC 2 Rocket - Orbit

View from above orbital plane
View from above orbital plane
View from above satellite
View from above satellite

Ground track
Ground track

The orbit data is extracted from the following two-line orbital elements,

1 21228U 91028B   14273.44324444  .00000337  00000-0  89426-4 0  4015
2 21228 023.9911 276.2952 1145308 090.6382 050.9669 12.52841757 73406
Epoch (UTC): 30 September 2014 10:38:16
Eccentricity: 0.1145308
inclination: 23.9911°
perigee height: 556 km
apogee height: 2349 km
right ascension of ascending node: 276.2952°
argument of perigee: 90.6382°
revolutions per day: 12.52841757
mean anomaly at epoch: 50.9669°
orbit number at epoch: 7340

The dashed part of the orbit path shows where the satellite is in the earth's shadow,  

DLR